{"data":{"norad_id":60276,"epoch":"2026-09-21T14:42:41.517792Z","epoch_age_seconds":86124,"freshness":"FRESH","line1":"1 60276U 24131X   26264.61298053 -.00000519  00000+0 -42093-5 0  9995","line2":"2 60276  53.1585 220.3761 0001525  87.4973 272.6204 15.34383849121748","mean_motion":15.34383849,"eccentricity":0.0001525,"inclination_deg":53.1585,"raan_deg":220.3761,"arg_perigee_deg":87.4973,"mean_anomaly_deg":272.6204,"bstar":-4.2093e-6,"rev_number":12174,"period_min":93.848745927461,"perigee_km":461.70800934652,"apogee_km":463.79448026118,"semimajor_km":6840.8882448039,"source":"CELESTRAK","updated_at":"2026-09-22T09:00:49.190637Z"}}